Home > Time Zones > World Clock > Weather > Serbia > Niš > Past weeks

Flag for Serbia Weather past 2 weeks in Niš, Serbia

Now
81 °F

Clear.


Feels Like: 80 °F
Forecast: 60 / 96 °F
Wind: 7 mph from Northwest

Location: Nis Airport

Current Time: Aug 29, 2015 at 9:33:31 PM

Latest Report: Aug 29, 2015 at 9:00 PM


Visibility: 10 mi

Pressure: 30.15 "Hg

Humidity: 37%

Dew point: 52 °F

Location of NišLocation

Historic Weather in Niš — Graph

°F

Niš temperature yesterday

Maximum temperature yesterday: 95 °F (at 3:00 PM)
Minimum temperature yesterday: 59 °F (at 6:00 AM)
Average temperature yesterday: 78 °F

Past Weeks' High & Low Weather Summary

 TemperatureHumidityPressure
High97 °F (Aug 15, 2:00 PM)94% (Aug 16, 10:00 PM)30.21 "Hg (Aug 16, 10:00 PM)
Low52 °F (Aug 24, 6:00 AM)19% (Aug 28, 3:30 PM)29.68 "Hg (Aug 16, 4:00 PM)
Average73 °F62%30.00 "Hg
* Reported Aug 14 8:00 PM — Aug 29 8:30 PM, Niš, Weather by CustomWeather, © 2015

Note: Actual official high and low records may vary slightly from our data, if they occured in-between our weather recording intervals... More about our weather records

Advertising

Niš weather history for previous 24 hours

 ConditionsComfort  
Time TempWeatherWind HumidityBarometerVisibility
8:30 PM
Sat, Aug 29
77 °FClear.1 mph42%30.15 "Hg10 mi
8:00 PM79 °FSunny.2 mph39%30.15 "Hg10 mi
7:30 PM84 °FSunny.2 mph31%30.12 "Hg10 mi
7:00 PM88 °FSunny.2 mph27%30.12 "Hg10 mi
6:30 PM91 °FSunny.7 mph23%30.12 "Hg10 mi
6:00 PM93 °FPassing clouds.10 mph23%30.12 "HgN/A
5:30 PM93 °FPassing clouds.9 mph23%30.12 "HgN/A
5:00 PM95 °FPassing clouds.7 mph22%30.12 "HgN/A
4:30 PM95 °FPassing clouds.8 mph23%30.12 "HgN/A
4:00 PM95 °FSunny.5 mph22%30.12 "Hg10 mi
3:30 PM95 °FSunny.2 mph22%30.15 "Hg10 mi
3:00 PM95 °FSunny.3 mph23%30.15 "Hg10 mi
2:30 PM93 °FSunny.3 mph24%30.15 "Hg10 mi
2:00 PM91 °FPassing clouds.3 mph26%30.15 "HgN/A
1:30 PM91 °FSunny.3 mph28%30.18 "Hg10 mi
1:00 PM90 °FSunny.3 mph29%30.18 "Hg10 mi
12:00 PM86 °FSunny.3 mph35%30.21 "Hg10 mi
11:30 AM82 °FSunny.2 mph40%30.21 "Hg10 mi
11:00 AM82 °FSunny.1 mph40%30.21 "Hg10 mi
9:30 AM73 °FSunny.2 mph53%30.21 "Hg10 mi
9:00 AM72 °FSunny.2 mph57%30.21 "Hg10 mi
8:00 AM64 °FPassing clouds.3 mph73%30.21 "HgN/A
7:30 AM64 °FSunny.2 mph73%30.21 "Hg10 mi
7:00 AM61 °FSunny.1 mph83%30.21 "Hg10 mi
6:00 AM59 °FClear.1 mph82%30.18 "Hg10 mi
5:00 AM61 °FClear.1 mph77%30.18 "Hg10 mi
4:30 AM61 °FClear.1 mph77%30.18 "Hg10 mi
4:00 AM61 °FClear.2 mph83%30.15 "Hg10 mi
3:30 AM63 °FClear.2 mph77%30.15 "Hg10 mi
3:00 AM63 °FPassing clouds.3 mph77%30.15 "HgN/A
2:30 AM61 °FClear.2 mph77%30.15 "Hg10 mi
2:00 AM64 °FClear.1 mph73%30.15 "Hg10 mi
1:30 AM63 °FClear.1 mph73%30.15 "Hg10 mi
1:00 AM68 °FClear.1 mph60%30.15 "Hg10 mi
12:30 AM66 °FClear.2 mph64%30.15 "Hg10 mi
12:00 AM68 °FClear.No wind64%30.15 "Hg10 mi
11:30 PM
Fri, Aug 28
72 °FClear.1 mph57%30.12 "Hg10 mi
11:00 PM73 °FClear.1 mph53%30.12 "Hg10 mi
10:30 PM72 °FClear.2 mph61%30.12 "Hg10 mi
10:00 PM79 °FClear.1 mph45%30.12 "Hg10 mi
9:30 PM81 °FClear.2 mph39%30.12 "Hg10 mi
9:00 PM79 °FClear.2 mph42%30.09 "Hg10 mi
Weather by CustomWeather, © 2015

See weather overviewHow to use our weather pages